星链-32312 (STARLINK-32312)

导读 | 豆包AI

STARLINK-32312是美国太空探索技术公司(SpaceX)星链(Starlink)互联网星座中的一颗低轨通信卫星,于2024年10月30日发射升空。星链项目旨在通过近地轨道卫星组网,为全球尤其是偏远地区提供高速低延迟的宽带互联网服务。该卫星运行在近地轨道,作为星链星座的组成部分,补充完善了全球覆盖的卫星互联网网络,增强星座通信服务能力,推动全球互联网接入覆盖的进一步拓展。

Basic Information
目录编号:
61711
目录名称:
STARLINK-32312
国际标识:
2024-196E
轨道中心:
EARTH
卫星名称:
星链-32312
卫星全名:
星链-32312 (STARLINK-32312)
卫星状态:
在轨 (已飞行548 天)
发射日期:
2024-10-30 UTC
国别 :
美国 (US)
星等 :
--
Orbit Information
数据来源 国际轨道数据 AOE轨道数据
星历时间 2026-05-01T00:51:26+0800
11小时前
查看轨道信息
2026-04-28T07:00:00+0800
3天前
查看轨道信息
半长轴 6853.385km 6853.352km
偏心率 0.0001184 0.0001218
轨道倾角 53.161° 53.161°
近地点辐角 99.505° 84.457°
升交点赤经 219.483° 232.230°
平近点角 260.608° 271.123°
近地点 474.436km 474.38km
远地点 476.06km 476.05km
周期 94.106分钟 94.105分钟
每日圈数 15.301891 15.302003
Detailed Information
固有亮度:
5
最大亮度:
2.5
卫星平台:
Starlink V1.0
覆盖范围:
全球
运营商:
太空探索技术公司
运营商所在国:
美国
制造商(研发单位):
太空探索技术公司
制造商所在国:
美国
使用方式:
暂无
Satellite Introduction
Starlink 计划是 SpaceX 推出的全球卫星互联网项目,通过发射低轨道卫星,为全球尤其是偏远地区提供高速、低延迟的互联网服务。自 2019 年起,Starlink 已部署数千颗卫星,旨在缩小全球数字鸿沟,推动互联网普及。该项目还为军事、航空等行业提供通信支持,带来广泛经济效益。
2D Orbit Map
3D Orbit Map
Orbit Altitude Analysis Chart
Orbit Inclination Analysis Chart
Orbit Comprehensive Analysis Chart
View Comprehensive Chart